Theta_e
355 353 353 351 356 354 346 340 318 325 323 314 315 319 318 332 331 330 329 334 329 335 341 341 339 336 333 331 332 334 334 324 328 314 310 335 347 349 351 352 353 354 354 355 357 358 359 362 362 365 365 366 366 365 365 366 366 367 366 366 365 365 365 364 364 364 364 363 364 364 363 363 363 364 363 363 362 363 363 362 362 362 362 362 362 362 362 362 362 362 362 361 361 361 360 360 362
353 352 352 355 351 347 332 341 322 319 319 315 317 324 324 330 329 328 327 330 333 335 340 340 338 339 343 338 337 335 332 336 338 335 339 345 348 350 352 353 355 354 355 356 357 356 358 360 364 365 365 366 366 366 366 366 366 366 366 366 366 365 365 365 364 363 364 364 363 362 363 362 362 363 363 362 362 363 363 362 362 362 362 362 362 362 362 362 361 361 362 361 361 361 360 359 361
352 350 349 353 350 344 340 337 316 314 312 308 317 323 331 324 326 329 332 335 336 338 339 337 338 337 335 337 331 332 324 339 338 340 339 347 343 347 352 355 356 356 357 356 354 355 357 361 363 365 365 366 366 366 367 367 367 366 366 366 365 366 365 364 364 364 364 363 363 363 363 362 362 362 361 360 360 361 362 362 362 362 362 361 361 361 362 361 361 360 361 362 361 361 360 359 359
351 350 348 348 335 344 329 327 321 316 312 314 315 326 329 329 329 333 336 335 335 337 337 334 334 339 336 330 331 336 334 334 340 339 338 342 344 351 353 356 358 358 358 357 355 356 357 361 364 365 365 366 366 367 367 367 366 366 365 365 365 365 365 364 364 364 364 363 362 362 362 362 362 362 361 361 361 361 361 362 361 361 361 361 362 361 362 362 361 360 361 362 360 360 360 360 359
352 356 355 346 338 327 327 323 321 321 313 318 313 326 328 329 333 336 336 339 335 336 336 335 331 337 340 335 338 329 331 339 340 344 342 347 353 353 355 356 357 357 357 358 357 357 357 361 365 366 366 366 366 367 367 366 366 365 365 365 365 365 365 364 364 363 363 363 362 362 363 362 362 362 362 362 361 359 360 361 361 361 362 361 361 362 362 361 361 360 362 362 360 361 360 360 360
358 353 356 353 333 344 333 319 318 317 322 328 320 327 331 333 334 336 336 335 340 339 337 336 331 331 331 334 340 332 338 331 341 343 345 346 352 354 355 357 357 356 357 358 359 358 357 362 365 365 366 366 367 367 366 366 365 365 365 365 365 364 364 363 363 363 363 362 362 363 362 362 363 361 362 360 360 359 359 361 362 362 362 362 362 362 362 362 361 362 363 362 361 360 360 360 361
348 346 348 344 340 339 321 319 318 321 327 332 328 330 332 335 335 335 333 332 335 336 339 332 334 332 328 334 337 341 346 345 343 344 348 350 352 354 355 355 356 356 358 358 358 359 361 364 365 366 367 366 366 366 365 365 365 365 365 365 364 363 363 363 363 363 363 363 362 362 362 362 362 362 362 362 362 362 362 361 361 362 361 361 362 361 362 360 361 361 362 363 362 360 361 361 362
363 343 338 328 325 328 320 321 321 324 328 330 332 332 333 336 336 336 331 332 329 333 332 334 336 331 329 340 329 341 346 351 347 350 351 351 352 353 354 355 355 356 357 358 358 360 363 363 366 366 366 366 366 366 365 365 366 365 364 364 364 364 363 363 363 363 363 362 362 362 362 362 363 362 362 362 362 362 363 363 362 361 363 362 362 362 361 361 360 361 361 362 362 361 361 361 361
351 346 345 332 320 325 319 318 322 332 332 331 332 336 337 339 338 334 331 333 334 334 332 334 334 327 329 333 333 342 344 348 350 351 351 351 351 352 354 355 355 355 357 358 359 361 362 366 365 366 366 367 366 365 366 366 365 365 364 364 364 363 363 363 362 362 362 362 362 363 363 363 362 362 361 362 362 363 363 363 363 363 362 362 362 361 361 361 361 361 361 361 360 362 362 361 362
345 343 329 325 325 316 318 318 319 324 329 332 331 333 337 336 336 337 334 330 332 333 333 335 335 330 334 330 334 340 342 349 350 349 351 351 352 353 354 355 356 356 357 358 360 361 361 366 365 366 366 366 365 366 366 365 365 364 364 364 363 363 363 363 363 362 362 363 363 363 363 362 362 362 363 362 362 362 363 363 363 363 363 363 362 362 361 362 361 361 360 360 363 362 361 360 360
334 340 341 325 318 313 312 314 322 324 327 330 333 337 340 340 336 334 336 333 335 332 334 336 332 332 334 333 335 346 348 349 347 346 350 351 352 353 354 356 357 358 357 358 360 360 362 361 365 366 366 366 366 366 367 366 364 364 364 363 363 363 363 363 363 363 363 363 363 363 363 362 361 362 362 362 362 362 362 362 363 362 363 363 362 363 363 363 362 363 361 361 361 361 361 360 360
328 328 330 315 313 312 315 317 320 322 328 330 328 337 337 337 337 333 332 331 332 332 331 336 330 337 331 332 335 343 346 346 347 349 350 351 351 353 354 356 358 358 359 359 360 360 360 361 361 366 366 366 366 367 367 366 365 364 363 363 363 363 363 363 363 363 363 363 363 362 362 363 363 363 363 363 363 363 363 363 363 363 363 363 363 363 363 363 363 362 362 362 362 362 362 361 361
332 333 323 315 315 317 320 320 319 322 324 325 327 333 338 334 332 336 332 332 332 330 330 337 337 337 328 331 339 343 343 346 349 350 350 351 351 353 355 357 358 359 359 360 359 359 359 359 360 362 364 366 366 367 366 366 365 365 364 363 363 363 364 364 364 364 364 364 363 363 363 363 363 364 364 364 364 364 364 363 363 364 364 364 364 364 364 363 363 363 362 361 361 363 363 362 361
333 332 325 315 322 320 319 319 321 319 319 327 332 335 337 334 335 335 334 331 331 330 336 339 338 337 332 335 336 337 342 348 349 350 351 352 352 353 355 357 358 358 358 359 358 358 358 359 361 361 361 361 362 365 367 366 366 365 365 364 364 364 364 364 364 364 364 364 364 364 363 363 364 364 364 364 364 364 364 364 364 364 364 364 364 364 364 364 364 364 364 363 363 363 362 362 362
332 339 328 320 318 320 322 316 319 318 316 327 332 335 336 339 339 338 337 331 332 338 338 341 340 335 327 331 331 336 342 348 349 350 352 352 353 353 356 357 356 356 357 358 358 358 358 359 360 360 361 361 361 361 362 364 366 366 365 365 365 364 365 365 365 365 364 364 364 364 364 364 364 364 364 364 364 365 364 364 364 364 364 364 364 364 364 364 363 363 363 363 363 363 361 361 362
339 334 329 319 315 317 318 317 320 318 322 331 334 339 336 335 339 336 338 339 335 339 338 331 340 332 336 334 336 341 345 348 349 350 350 350 351 353 354 354 354 356 356 357 357 358 359 359 359 360 360 360 361 361 362 362 365 367 366 365 366 365 365 366 366 366 365 364 365 364 364 363 364 362 365 363 365 365 365 363 364 364 364 364 364 364 365 365 365 364 363 363 363 363 363 361 362
341 337 320 318 315 317 318 317 319 314 323 332 335 335 330 330 337 339 344 341 334 333 336 336 335 341 337 338 342 344 346 348 349 348 348 347 348 349 349 349 352 353 355 355 356 357 358 358 359 359 360 360 361 362 361 361 363 367 366 367 366 366 366 366 366 366 365 364 364 365 364 361 359 359 361 359 364 364 364 364 365 365 364 364 365 365 365 365 365 365 364 363 363 363 363 360 359
336 324 319 314 318 317 322 325 321 326 326 327 329 331 330 327 334 336 341 336 336 335 333 336 339 339 341 343 345 346 347 346 346 345 345 345 347 344 345 348 349 348 352 353 355 356 357 358 358 358 359 360 361 361 362 362 363 365 362 362 363 363 365 366 363 361 365 359 364 362 358 363 357 356 359 365 361 364 363 365 363 364 364 365 364 364 364 364 365 364 364 365 365 364 364 357 358
329 323 319 315 318 321 328 328 327 326 325 327 329 331 331 329 334 336 332 332 333 331 332 333 333 336 341 343 344 344 345 344 344 344 344 344 344 342 343 346 346 348 350 352 353 355 356 357 357 358 359 359 360 360 362 362 361 361 360 361 363 365 365 366 361 364 357 358 359 358 362 360 357 358 360 362 363 365 365 365 364 365 365 364 364 364 365 365 364 365 365 365 365 365 359 353 353
332 324 317 319 325 327 335 330 330 329 328 326 327 330 330 331 334 337 332 331 333 329 328 330 331 331 336 340 342 343 343 343 343 344 343 343 343 343 344 344 345 348 349 350 351 354 356 355 355 357 357 358 359 359 360 360 359 359 358 359 360 360 361 361 359 358 358 357 359 358 359 360 359 357 367 364 362 363 362 365 364 364 365 365 366 365 364 365 365 365 364 362 365 365 354 354 353
330 325 319 322 327 324 328 332 333 331 331 328 328 329 328 331 333 332 332 329 330 332 332 330 330 332 336 339 341 342 342 342 342 343 343 342 343 345 345 345 345 347 349 350 351 352 354 353 354 356 356 357 357 358 359 359 358 358 357 357 358 358 358 358 358 357 357 357 358 358 360 362 360 357 360 359 357 357 355 357 359 358 358 358 365 355 359 361 361 357 358 363 355 357 353 351 352
329 325 327 327 327 324 331 334 334 330 333 328 329 325 326 332 332 331 331 326 326 332 333 335 335 336 336 338 340 341 341 340 341 341 341 341 342 343 344 345 347 348 349 348 349 351 352 353 354 355 355 356 356 357 358 360 358 356 356 356 356 357 358 357 357 357 357 354 358 358 362 359 358 357 358 355 355 355 355 355 355 356 356 359 363 355 355 355 355 355 354 353 354 354 353 352 352
321 326 327 328 328 325 334 333 336 329 331 329 327 329 330 330 330 332 331 329 331 338 337 337 337 338 339 340 340 339 340 339 340 340 340 341 342 343 344 345 345 345 347 347 349 350 351 352 353 354 353 355 354 356 358 359 356 356 356 355 355 355 356 356 356 356 357 354 356 361 359 355 355 355 357 355 353 354 355 355 355 358 356 355 359 355 354 355 354 357 354 354 354 355 353 353 352
324 319 326 327 329 326 331 332 333 328 331 329 331 332 328 329 325 332 330 334 336 338 338 338 338 339 339 338 339 338 339 339 340 341 341 342 342 343 344 344 345 346 346 347 349 350 350 351 352 352 353 353 353 355 355 356 354 355 354 359 357 356 357 356 356 356 357 357 358 360 361 355 353 353 356 353 356 354 355 357 358 357 358 356 358 356 354 353 355 355 354 354 356 355 354 352 353
322 321 323 324 327 328 329 333 331 329 329 332 331 326 327 330 328 331 330 334 337 338 338 338 338 338 338 338 338 338 339 340 340 341 342 343 343 344 345 346 346 346 345 346 348 349 349 352 352 351 352 352 352 354 352 354 353 353 354 355 352 359 355 355 355 356 356 357 358 360 360 354 353 353 354 353 357 356 357 357 357 355 358 357 357 355 354 352 354 353 356 354 352 353 353 353 354
323 323 325 324 325 328 329 330 328 329 330 331 328 326 327 330 331 328 332 335 338 338 337 337 337 335 335 337 338 338 338 339 340 340 341 342 343 342 344 345 345 345 345 346 348 349 350 352 351 351 352 352 352 352 350 351 351 351 352 353 351 358 354 354 354 354 356 356 356 358 358 354 353 353 354 354 355 355 355 355 357 355 355 356 357 354 356 354 354 355 356 352 353 353 352 352 354
325 324 324 323 327 329 330 327 327 328 329 330 327 325 325 328 328 324 334 337 338 337 335 336 335 334 335 336 337 339 339 339 340 341 342 342 342 341 343 344 344 345 346 345 348 349 351 351 351 351 351 353 351 350 348 350 351 349 351 351 351 353 354 354 353 354 356 356 356 359 358 357 353 352 353 354 352 353 352 353 355 355 353 354 358 356 360 357 356 356 355 354 354 352 353 354 355
324 323 322 323 325 328 329 327 326 328 326 330 328 325 327 328 329 324 332 337 338 334 334 334 334 334 334 335 336 339 339 341 341 341 340 340 341 341 341 342 343 344 345 345 347 349 351 351 350 351 351 352 351 349 349 349 349 348 351 350 351 352 354 352 352 354 357 356 357 358 358 356 360 351 354 353 352 351 351 354 355 354 353 354 358 356 358 359 357 357 358 357 356 355 354 352 355
323 322 316 317 320 323 326 324 325 327 325 331 330 325 321 323 321 329 334 337 336 334 333 333 333 333 334 335 335 338 339 341 341 341 341 342 343 344 342 344 344 344 346 347 348 349 349 350 350 350 351 351 350 349 347 347 348 348 350 349 350 354 352 352 352 353 355 355 356 357 359 360 363 356 353 353 359 351 352 353 353 356 353 355 357 358 358 359 360 358 357 360 355 350 350 350 356
323 321 317 314 313 314 323 326 326 326 327 329 328 310 314 319 324 330 334 336 336 333 332 332 332 333 334 334 334 336 339 340 340 341 342 343 344 345 344 345 345 345 345 347 348 348 350 351 351 351 350 350 349 349 348 346 346 347 351 349 352 353 351 352 353 353 355 354 355 357 358 361 361 359 355 355 356 353 354 353 353 355 354 355 356 358 354 355 354 355 354 353 361 353 348 350 350
312 315 316 308 305 306 319 324 325 322 327 326 326 309 312 320 324 331 334 336 334 331 332 332 332 333 333 334 334 334 336 339 340 341 343 344 345 346 346 347 346 346 347 347 347 347 350 350 351 351 352 350 351 349 349 347 346 347 350 349 351 352 350 352 352 352 355 355 356 357 357 359 360 360 357 357 356 356 356 353 354 355 356 357 356 358 354 354 354 353 354 349 350 350 350 355 351
311 306 304 305 304 305 316 324 322 318 324 327 322 311 313 319 323 331 334 335 334 331 331 332 332 332 333 333 334 334 335 337 339 341 343 344 344 346 347 347 347 347 347 347 348 348 348 350 351 350 351 350 350 349 349 348 348 348 350 356 352 352 351 352 351 355 356 356 357 356 357 358 357 361 358 357 356 356 356 354 355 357 358 358 358 360 356 353 353 354 356 353 350 351 353 348 347
308 305 303 303 304 306 312 319 322 322 323 325 321 311 316 317 323 330 334 334 333 331 331 331 332 332 333 333 333 334 334 335 337 341 342 343 344 346 347 348 347 348 348 348 348 347 347 348 351 350 350 349 349 349 350 348 348 350 351 354 353 351 350 350 351 356 357 357 357 356 358 358 355 359 358 357 356 355 355 355 356 359 361 358 359 360 356 356 354 355 355 357 351 349 347 348 347
302 305 302 306 306 306 305 314 320 322 322 319 322 315 317 320 323 330 333 334 332 331 330 331 332 332 333 333 333 333 334 334 334 339 341 343 344 346 347 351 348 349 349 349 349 348 347 348 349 350 350 350 350 350 349 348 349 351 351 354 356 352 350 349 350 355 356 356 357 356 358 358 356 357 359 356 355 355 354 357 358 359 360 357 358 358 355 356 353 353 350 354 353 348 345 344 344
300 301 301 302 307 308 308 308 314 319 320 319 319 317 316 321 324 329 332 334 332 331 331 331 332 332 332 333 333 333 333 334 335 338 341 343 344 345 347 348 348 349 349 350 350 349 348 348 349 351 350 349 349 351 349 349 350 351 351 353 353 352 351 349 349 352 356 356 357 357 358 358 358 356 359 358 355 358 354 358 359 361 359 357 358 357 352 352 353 354 351 350 356 349 347 346 345
305 305 303 304 303 305 307 312 317 317 316 316 317 315 315 320 322 328 331 332 330 330 332 332 332 332 332 332 333 333 333 334 337 338 341 342 343 344 346 347 347 348 349 349 350 349 348 348 349 350 350 349 349 351 350 348 350 350 349 350 350 351 351 350 349 350 353 355 357 358 357 357 358 357 359 357 355 358 355 358 359 361 359 358 358 355 351 352 351 352 349 350 351 356 357 352 349
307 307 306 305 306 307 312 313 317 318 316 315 316 317 317 319 321 326 329 330 329 329 329 330 331 331 332 332 332 333 334 334 338 338 339 341 342 343 345 346 346 347 348 348 348 348 348 348 349 348 349 350 349 350 349 348 348 348 348 349 349 349 350 350 351 349 351 354 357 358 358 357 358 358 360 357 354 362 357 357 358 359 360 358 358 355 355 354 355 355 356 355 352 349 348 351 352
306 305 305 305 307 305 311 312 316 318 314 313 316 316 317 318 321 325 329 329 327 328 328 329 330 331 332 332 332 333 334 337 338 337 338 339 340 341 343 344 346 344 346 347 347 347 348 349 348 350 349 350 348 350 350 349 349 349 348 349 349 349 349 350 350 348 350 352 356 358 359 357 358 358 360 358 355 357 355 355 356 357 359 357 356 358 355 361 357 356 356 352 355 348 346 351 352
304 303 303 302 304 308 311 312 315 316 315 310 315 314 315 318 322 325 326 327 328 329 330 330 331 331 331 332 332 333 334 334 336 337 338 338 339 340 341 343 344 345 346 347 348 347 347 348 348 351 350 349 348 350 351 349 350 351 349 349 350 349 351 352 351 352 351 351 356 357 359 358 358 358 359 360 356 356 355 355 355 357 359 359 356 357 355 353 353 354 353 351 349 352 351 354 349
302 302 300 300 305 303 301 309 311 315 314 310 314 314 314 319 323 324 326 327 327 329 331 331 332 331 331 332 333 333 333 334 334 335 336 337 339 339 340 341 343 344 345 346 347 347 347 348 348 350 350 350 349 351 353 351 351 351 350 350 351 351 350 351 351 352 350 353 355 357 358 359 358 358 359 359 358 356 355 356 356 357 359 360 356 356 355 353 353 352 354 353 349 345 347 348 353
303 303 302 302 304 305 305 306 309 311 313 316 314 312 312 315 317 320 324 327 326 327 329 330 331 333 333 334 335 335 334 334 334 335 336 337 337 338 339 340 342 343 344 345 346 347 347 347 348 350 350 350 349 353 353 352 353 350 350 350 351 350 351 349 348 348 349 352 355 356 357 359 359 359 359 359 358 356 355 356 357 358 359 360 358 356 356 356 355 354 355 354 350 347 345 345 349
301 304 304 305 306 306 308 309 307 303 303 313 313 301 303 310 316 318 321 323 322 326 326 326 327 330 332 331 333 335 336 336 335 335 336 337 337 339 339 340 341 342 343 345 347 348 348 347 349 350 350 350 350 352 353 353 352 349 348 346 344 345 344 345 344 345 345 349 354 356 357 359 359 359 359 358 358 358 356 356 359 359 359 360 359 357 357 357 358 356 357 355 351 349 347 342 342
299 301 307 306 306 306 307 306 305 297 297 307 315 304 297 305 310 315 319 319 320 323 324 325 326 327 329 330 332 333 335 335 336 336 337 337 337 338 339 340 341 341 342 346 347 347 348 348 349 350 350 350 351 353 353 354 351 350 348 347 346 345 344 345 347 347 347 348 355 355 356 358 359 358 358 358 358 358 357 356 359 359 360 360 362 358 357 358 360 359 359 355 353 354 346 341 341
299 306 307 307 306 305 306 306 304 299 308 311 313 310 300 299 308 314 317 316 318 320 322 324 325 326 327 330 331 333 335 336 335 335 336 337 338 338 338 340 341 342 343 345 346 347 347 348 349 350 351 352 351 353 353 353 350 350 348 347 347 346 345 345 346 347 347 349 352 355 355 357 358 358 358 357 357 358 358 357 358 360 360 360 362 359 358 359 360 359 359 357 354 354 346 343 342
303 307 308 307 307 306 307 305 303 302 302 297 305 309 301 299 308 314 314 312 315 318 320 322 324 326 327 328 330 333 335 336 336 335 336 336 337 339 340 340 341 343 343 344 345 346 347 348 349 350 350 352 351 353 353 352 352 350 349 348 346 347 347 347 348 347 347 350 349 353 354 356 357 357 357 357 356 357 359 358 358 359 360 360 363 360 359 360 359 357 356 355 353 353 347 345 344
308 309 309 309 309 308 307 304 303 301 298 294 299 305 299 296 304 308 312 312 313 316 320 322 325 326 327 328 329 332 335 336 337 337 337 337 338 340 341 342 342 343 344 346 346 347 347 347 348 349 349 352 352 352 353 352 352 352 349 348 346 345 348 347 347 346 347 347 346 350 353 354 355 355 356 356 356 356 357 358 359 359 360 361 362 360 360 359 359 357 357 355 354 353 349 349 345
310 309 307 305 306 306 306 303 301 298 293 295 301 305 303 295 301 307 307 310 315 318 320 322 325 327 328 329 330 331 334 336 336 337 337 338 339 340 341 341 341 343 344 345 345 345 346 346 347 347 349 351 352 352 352 351 351 351 349 348 347 345 346 347 345 345 346 347 345 347 351 353 354 354 355 355 356 356 356 359 360 359 361 362 362 360 359 359 360 358 358 356 354 352 349 349 351
309 305 304 302 300 300 299 300 301 293 288 295 301 303 305 297 297 305 313 317 317 318 318 320 322 326 328 329 330 332 334 336 337 337 337 337 337 338 340 340 341 343 344 344 344 345 346 346 347 347 347 350 351 352 352 351 351 351 350 348 347 347 347 348 346 344 345 347 346 345 350 352 352 354 354 354 355 356 356 357 360 360 361 361 361 360 360 360 360 359 357 355 354 352 352 351 348
308 304 301 296 291 293 290 292 292 290 289 294 300 302 298 301 300 307 312 315 317 318 321 322 322 325 328 330 330 332 334 336 336 336 337 337 336 337 338 340 340 342 343 344 344 345 345 346 346 346 346 349 350 352 351 351 351 350 350 348 348 348 347 348 348 346 346 347 347 345 347 350 351 352 353 352 354 355 355 356 358 359 360 361 361 360 360 360 360 359 357 355 353 351 351 351 346
305 302 298 294 290 289 285 285 288 289 293 298 298 300 296 296 302 307 311 315 317 318 321 324 324 325 328 330 331 332 334 335 336 337 337 337 337 337 339 340 341 342 343 344 345 345 345 346 346 346 346 348 350 351 351 350 350 350 350 349 348 349 348 348 349 347 347 347 349 347 346 350 351 352 353 353 354 355 356 357 359 359 360 360 361 360 360 360 359 358 357 354 353 353 352 351 348
304 306 301 298 295 291 287 286 287 287 288 293 298 294 290 296 296 306 311 316 317 318 319 324 326 327 329 331 332 332 333 335 337 337 337 337 338 338 339 340 341 342 343 344 345 345 345 345 346 346 346 348 349 350 351 350 350 350 350 350 349 348 349 348 349 350 348 347 349 349 347 349 352 353 354 355 355 355 355 356 359 359 360 360 360 360 360 359 358 358 358 355 354 355 352 352 348
305 306 304 298 297 295 290 288 288 290 291 292 293 291 294 298 303 308 309 312 316 319 317 323 325 327 329 329 330 331 332 334 336 337 337 338 338 339 339 340 341 342 343 345 345 346 346 345 346 346 346 348 348 350 350 350 349 350 349 349 349 349 350 350 349 350 351 349 349 350 350 350 352 354 355 355 355 355 355 355 358 359 359 360 360 360 359 358 357 356 356 356 354 357 353 351 349
301 302 298 300 301 301 295 298 296 296 292 290 294 298 297 299 301 303 305 307 309 313 317 322 324 326 327 328 329 331 332 334 336 337 337 338 339 339 340 341 341 342 343 344 345 346 347 346 347 346 346 347 348 350 350 350 350 349 349 349 349 349 349 349 349 349 351 352 351 350 351 352 353 354 355 356 355 355 355 355 356 358 359 360 360 360 360 358 357 356 356 355 354 355 354 351 349
301 298 300 303 306 305 297 288 291 290 285 287 293 292 291 294 291 302 303 302 304 308 314 322 323 325 325 328 329 331 332 333 336 337 338 339 339 339 340 341 342 343 343 344 345 347 348 348 348 347 347 346 348 349 350 350 349 349 349 349 350 350 350 350 351 350 351 352 352 351 351 352 353 355 356 357 356 355 354 360 356 357 358 360 360 360 360 359 357 356 356 355 356 355 354 353 351
304 303 305 302 293 294 295 294 288 285 286 286 290 294 294 293 294 298 301 302 303 304 309 319 322 324 326 327 329 331 332 333 335 336 337 338 338 339 340 341 343 343 345 345 346 348 349 349 349 349 348 348 349 350 351 351 350 350 350 349 350 350 351 351 352 352 352 352 352 352 351 352 354 355 356 356 356 355 354 356 357 357 357 358 360 359 360 359 357 356 356 355 355 355 353 352 351
307 305 304 304 299 297 292 295 291 291 286 289 287 292 290 298 296 299 301 304 305 305 304 316 323 325 327 328 329 330 331 332 334 336 337 338 339 339 340 341 342 343 344 345 347 348 348 349 350 350 350 350 350 350 351 351 351 350 350 351 351 351 351 351 351 352 352 352 353 354 353 352 353 356 356 357 356 356 355 354 356 357 357 358 358 359 359 359 358 356 355 355 355 354 353 352 351
300 300 300 302 301 300 298 298 293 290 287 285 286 287 291 297 303 305 305 306 306 306 304 313 324 326 328 329 330 330 331 333 334 336 337 338 339 339 340 341 343 345 345 346 347 347 349 350 350 351 350 350 350 350 351 351 352 351 351 350 350 351 351 352 351 352 351 352 353 355 355 354 354 355 357 356 356 356 355 355 355 357 357 357 357 358 359 359 357 356 355 355 355 354 353 352 351
302 300 298 301 297 294 293 290 298 295 291 285 287 288 293 302 308 307 306 307 308 308 307 308 323 326 328 329 330 331 331 333 334 336 337 338 339 339 340 341 343 344 345 345 347 348 349 350 351 351 351 351 350 351 351 352 352 352 351 350 351 352 352 352 351 351 351 351 351 353 355 355 354 354 357 357 356 357 356 356 355 355 357 357 357 357 359 359 357 356 355 356 356 354 353 352 351
Wind_Speed
11 7 5 6 3 3 4 3 0 1 1 1 1 2 1 3 4 3 2 3 3 2 2 4 6 6 3 2 5 8 6 10 1 6 4 3 10 12 9 12 11 10 9 7 5 6 8 10 13 17 17 17 17 17 17 17 17 17 17 17 18 17 17 17 18 17 17 17 17 17 17 17 17 16 15 14 15 13 13 13 14 14 13 12 12 12 12 12 12 13 13 13 13 13 13 14 14
8 7 6 5 4 4 2 2 2 1 1 1 3 2 0 2 2 5 7 6 2 3 4 2 6 1 2 9 10 9 7 6 3 5 5 9 14 9 11 13 12 12 9 7 6 6 7 9 13 16 17 17 17 17 17 17 17 17 17 17 17 17 17 17 17 17 17 16 17 17 17 17 17 16 15 14 12 12 13 14 14 13 14 13 12 12 12 12 12 13 12 13 13 13 13 14 14
8 7 6 5 3 2 1 1 1 1 1 2 0 1 2 2 3 2 3 4 4 6 6 4 3 1 2 3 6 2 1 5 12 9 8 12 15 8 13 12 11 11 11 7 7 6 6 9 12 16 17 17 17 17 17 17 16 17 17 17 17 17 17 17 17 16 16 16 16 15 16 17 17 17 16 13 12 12 11 12 13 13 12 13 13 12 12 12 12 12 11 11 13 13 13 13 14
7 4 6 5 2 1 1 0 2 2 3 2 3 1 1 3 4 3 1 5 6 6 5 5 3 2 4 6 8 12 7 4 4 13 10 11 8 14 14 13 12 10 9 8 8 7 6 11 12 16 17 18 17 17 17 16 16 17 17 17 17 16 16 16 16 16 16 16 16 16 15 16 17 16 16 14 13 12 12 12 14 14 13 13 13 12 12 11 11 14 13 11 13 13 13 12 13
6 5 5 3 1 0 1 1 2 0 3 0 1 2 4 6 3 2 2 1 7 6 5 6 3 3 4 9 3 3 6 7 7 1 10 8 13 14 14 14 11 11 9 9 9 8 8 13 14 16 18 18 18 17 17 16 16 16 17 16 16 16 16 16 16 16 16 16 16 16 15 15 15 17 16 16 16 13 12 13 13 14 13 13 13 12 12 11 12 12 13 12 12 12 12 12 12
5 3 1 1 0 0 1 1 2 3 6 2 2 1 3 5 3 3 3 1 4 1 5 4 5 6 5 4 2 4 14 10 7 6 13 12 17 17 16 13 12 11 10 9 9 8 9 16 15 18 17 18 18 17 17 16 17 16 16 16 16 16 16 16 16 16 16 15 15 15 15 15 16 16 17 16 17 16 15 13 13 13 13 12 12 12 11 10 11 11 12 12 12 12 12 12 12
4 3 0 2 1 0 1 1 5 5 4 4 1 3 5 4 4 6 5 4 3 2 5 8 13 11 8 5 11 6 4 9 9 9 9 17 18 17 16 13 12 12 11 9 8 8 11 15 18 19 18 18 18 17 17 17 16 16 16 16 16 16 16 16 16 15 15 15 15 15 14 14 14 14 14 14 14 14 14 14 13 13 13 12 12 11 11 11 11 10 10 12 12 12 12 12 12
1 1 2 1 1 1 1 3 5 3 1 6 2 2 4 4 2 3 7 5 5 1 10 8 4 9 7 5 6 6 10 2 11 15 18 17 18 17 15 13 13 13 11 9 8 8 15 19 19 19 18 18 18 17 17 17 16 16 16 16 16 15 15 16 16 15 15 15 15 15 14 14 14 14 14 14 14 14 13 13 13 13 13 13 12 12 12 12 11 13 11 11 12 12 12 12 11
2 1 0 1 0 1 2 4 4 3 4 1 4 3 4 3 3 4 8 5 4 5 8 9 7 10 4 12 8 7 8 14 14 19 18 18 19 17 12 14 14 14 12 10 9 8 11 17 18 19 18 18 18 17 17 17 16 16 16 15 15 15 15 15 15 15 15 15 15 14 14 14 14 14 14 14 14 14 13 13 13 13 13 12 12 11 11 11 11 11 12 13 11 12 12 11 11
2 1 2 1 1 0 3 3 1 3 4 3 4 5 6 6 7 1 2 10 7 9 9 5 3 14 11 13 11 7 9 16 19 17 17 18 18 15 15 15 15 15 12 11 9 10 9 17 19 19 18 18 18 17 17 17 17 16 16 15 15 15 15 15 15 15 15 15 14 14 14 14 14 14 14 14 14 14 14 13 13 12 12 12 12 12 11 11 11 12 11 11 11 11 11 11 11
2 1 2 1 1 0 0 2 2 3 3 1 3 4 5 4 6 4 4 4 10 9 10 14 11 15 11 7 5 7 16 18 19 19 18 17 17 16 14 14 14 14 13 12 11 10 10 11 19 19 18 18 18 17 17 17 17 16 16 15 15 15 15 14 15 15 15 15 14 14 14 14 14 13 13 13 13 13 13 13 13 13 12 12 11 11 11 11 11 11 13 11 10 10 10 10 11
1 1 1 1 1 2 3 3 3 3 2 1 3 5 5 5 4 6 7 7 11 11 12 8 6 14 11 8 6 12 17 17 17 18 17 16 15 16 14 12 13 12 13 13 12 10 10 9 11 17 19 18 18 17 16 17 17 16 16 15 15 15 14 14 14 14 15 15 15 14 14 13 13 13 13 13 12 12 12 12 12 12 12 12 12 11 11 11 11 11 12 12 10 10 10 10 10
2 2 1 1 2 2 2 2 2 2 0 5 4 5 6 7 7 8 8 7 12 13 11 4 18 7 8 8 8 13 16 16 16 17 17 14 15 14 13 12 12 13 13 12 11 11 10 9 9 10 13 19 18 17 17 17 17 16 16 16 15 15 15 14 14 14 15 15 14 14 14 13 13 13 13 12 12 12 12 12 12 12 12 12 12 11 11 11 11 10 11 11 11 10 10 9 10
3 4 4 1 1 1 1 3 2 3 3 1 3 2 5 3 4 5 7 12 12 9 7 15 11 12 13 10 10 11 13 16 18 17 14 15 14 14 15 12 14 13 12 12 10 11 10 9 9 9 11 10 9 14 16 17 16 16 16 15 15 15 15 14 14 15 14 15 14 14 14 14 13 13 13 12 11 11 11 11 11 11 11 11 11 11 11 11 10 10 10 10 10 10 10 9 9
4 2 2 2 1 1 2 3 6 5 3 4 8 11 5 3 4 7 8 15 9 8 13 7 11 12 9 14 11 13 16 18 19 17 16 15 15 14 14 12 13 12 11 11 10 10 10 9 9 8 8 8 8 7 7 12 17 16 16 15 15 15 14 14 14 14 14 14 14 14 13 13 12 12 12 12 11 11 10 10 11 11 11 11 10 10 10 11 10 10 9 9 9 9 10 10 9
5 2 2 1 2 1 3 1 5 4 3 2 5 9 5 5 3 8 13 7 9 11 14 9 8 1 13 3 15 18 20 20 18 17 17 18 15 13 14 13 12 11 10 10 10 9 9 9 8 7 7 7 6 6 7 7 13 16 15 15 15 14 14 14 14 14 14 14 13 13 12 10 10 8 12 8 11 11 10 7 10 10 10 10 10 9 9 9 9 9 9 9 9 9 10 10 10
5 2 1 1 4 3 3 2 1 1 3 2 8 7 9 6 9 5 8 12 16 15 9 10 7 11 13 12 18 20 21 19 17 20 17 13 11 11 10 11 11 11 9 9 9 9 9 9 8 7 7 8 7 7 6 7 10 14 13 14 15 14 14 14 13 14 13 12 10 11 9 4 3 3 5 4 9 4 8 9 9 10 10 10 9 9 8 8 9 9 8 8 8 8 8 9 11
5 3 2 4 5 2 5 3 2 7 4 4 11 12 11 13 12 7 10 13 14 13 9 8 9 10 12 16 18 19 19 18 18 19 16 14 12 11 11 11 11 11 10 9 9 9 9 8 9 8 7 8 7 6 5 5 6 10 6 7 7 9 10 11 9 5 8 4 10 7 4 3 3 3 3 5 3 4 5 9 8 9 9 8 8 8 7 7 7 7 8 7 7 7 6 2 5
5 2 3 7 4 5 5 4 7 9 6 10 11 14 12 10 19 13 11 13 14 10 11 11 13 14 16 18 20 19 19 18 19 17 17 17 14 15 13 12 12 11 11 9 9 10 9 9 9 9 9 8 8 6 6 5 6 5 5 5 5 9 7 6 4 4 3 4 3 4 4 3 3 3 2 4 3 5 4 7 8 8 8 8 7 7 6 5 5 5 6 6 6 6 3 2 3
7 3 5 7 7 3 3 5 6 5 5 7 11 8 10 8 11 10 12 14 13 13 13 14 15 18 20 19 19 19 18 18 17 17 17 16 15 15 15 15 13 12 12 10 10 8 9 9 10 9 9 9 8 6 6 5 5 5 5 5 5 5 4 4 3 4 4 3 4 4 4 3 3 4 6 9 7 3 3 6 7 8 8 7 7 4 5 5 5 5 5 5 4 3 3 2 2
4 6 6 6 6 5 6 8 6 5 5 8 6 9 8 8 7 7 13 13 9 9 14 19 21 21 22 22 20 18 18 18 16 17 17 16 15 12 13 13 13 12 11 10 9 10 11 10 9 9 9 8 8 7 7 6 5 5 5 5 5 4 4 5 4 3 4 3 4 3 3 3 4 4 3 2 4 3 1 1 2 2 2 3 4 1 1 1 2 0 0 2 2 2 2 2 2
4 12 13 11 1 4 7 7 6 5 6 8 5 13 11 5 7 7 15 13 12 13 15 16 21 22 24 23 21 18 19 18 18 19 19 18 18 15 13 11 11 10 10 10 11 11 12 11 10 9 9 9 9 8 8 7 7 6 6 5 5 4 5 5 4 4 5 5 4 3 3 3 4 4 2 2 4 4 3 2 2 2 3 2 2 2 2 1 1 2 2 2 1 1 2 2 3
8 9 12 13 11 8 3 6 6 6 3 5 8 8 7 7 6 8 14 9 5 13 16 20 21 23 23 22 21 20 20 19 19 20 19 18 16 16 15 13 14 13 11 11 10 10 11 11 11 10 9 9 9 7 7 6 7 6 6 6 6 5 5 5 5 4 5 5 4 4 5 4 4 4 3 3 4 4 4 3 3 3 3 2 2 3 3 1 1 2 2 1 0 1 2 2 2
11 10 8 13 12 14 9 6 6 7 8 6 3 8 9 8 8 5 8 2 6 15 19 20 20 19 21 21 21 22 21 21 20 18 18 18 17 17 15 15 13 11 11 11 11 11 11 13 11 11 9 10 8 8 8 7 6 6 6 6 6 6 6 5 5 5 5 5 4 4 4 5 5 5 4 3 4 4 4 4 3 3 4 3 2 3 2 1 1 1 1 1 1 1 1 3 3
13 14 11 10 11 13 11 7 7 8 6 5 7 10 9 9 8 8 6 7 13 17 19 20 19 20 19 20 20 20 19 17 17 17 14 13 14 14 13 11 13 12 13 12 11 12 12 12 12 12 10 11 9 9 8 7 6 6 6 6 6 6 6 6 6 5 5 5 4 5 4 5 4 4 4 4 4 5 4 4 4 4 3 4 3 3 3 3 2 2 2 2 2 2 0 0 3
12 15 12 10 8 12 11 8 9 9 4 5 8 8 8 8 6 7 8 10 15 18 19 20 20 20 19 20 20 19 19 20 19 18 17 15 15 16 15 14 14 14 13 12 13 12 12 12 13 13 12 11 10 9 8 7 7 7 7 6 6 6 6 7 5 5 5 5 5 5 6 5 5 5 5 4 5 5 4 4 4 3 4 4 4 4 3 2 3 2 1 2 2 2 2 1 1
6 13 15 12 10 9 10 9 8 10 7 9 8 5 4 6 8 1 9 14 16 18 19 19 20 20 19 18 18 18 21 20 20 17 15 15 15 15 15 14 15 14 13 13 13 12 12 13 13 12 12 10 9 10 8 8 8 7 7 7 6 7 7 6 5 5 5 5 6 5 6 5 5 5 5 5 5 5 4 4 4 3 4 4 4 4 3 4 3 3 3 3 3 2 2 1 1
11 12 9 13 10 11 9 11 11 8 6 9 8 4 5 4 3 6 11 16 18 19 19 20 18 18 18 18 16 16 17 17 16 17 18 18 14 15 15 14 15 15 15 14 13 12 13 14 14 12 12 11 10 10 9 9 8 8 8 7 7 7 6 6 6 5 6 6 5 5 5 5 5 6 6 5 5 5 5 5 4 4 4 4 4 4 3 3 3 2 1 2 1 0 2 2 1
12 9 11 10 10 11 11 12 11 13 8 17 11 6 5 7 9 9 13 16 17 18 19 19 16 16 17 18 13 15 16 16 15 16 16 15 14 14 16 15 15 14 11 13 13 14 15 15 14 13 12 11 11 11 10 9 8 7 8 8 7 7 6 6 6 7 7 6 5 5 5 4 4 7 6 7 6 6 5 5 4 4 5 4 4 4 3 3 3 3 1 1 0 1 1 2 3
11 11 9 9 9 10 13 10 10 13 6 16 15 7 8 9 9 11 15 17 17 17 16 17 14 14 16 17 13 14 15 17 17 16 15 15 14 15 16 16 16 13 12 11 13 14 12 11 11 10 12 12 11 10 9 8 9 7 7 7 7 7 6 6 6 6 7 6 5 5 5 4 4 5 6 6 6 5 5 5 5 5 4 4 4 3 4 2 4 3 2 1 2 1 1 2 2
6 5 5 7 7 7 10 13 12 13 8 16 14 5 6 10 9 14 16 19 20 18 17 17 15 14 15 16 14 13 14 16 18 17 17 16 15 14 16 16 16 14 11 13 15 15 13 13 12 10 13 12 11 10 11 9 9 8 7 7 7 7 6 7 7 6 6 6 5 5 5 4 4 4 5 6 6 6 6 5 5 5 5 4 4 4 4 3 3 4 3 2 0 1 1 1 1
2 3 7 3 7 5 7 14 14 13 6 12 12 4 8 11 11 17 17 19 20 18 18 18 16 15 16 15 15 13 12 13 15 17 18 17 17 14 17 17 17 15 15 14 14 14 14 14 13 13 14 12 11 10 10 10 9 9 7 7 7 7 7 6 6 6 6 6 6 6 5 4 4 4 5 5 6 5 6 6 6 5 5 4 4 3 3 3 2 3 2 2 1 1 2 2 1
5 6 3 5 6 6 3 11 10 15 7 12 12 4 7 8 14 16 18 20 19 18 18 18 18 18 17 15 15 14 12 11 12 17 17 17 15 15 16 17 17 17 15 15 15 15 14 14 14 15 16 14 12 9 10 8 7 8 8 8 8 7 6 6 5 5 6 6 6 6 5 5 4 4 5 4 5 5 5 6 5 5 5 5 4 4 4 4 3 3 1 1 2 1 1 2 3
6 3 7 5 5 4 6 1 8 10 10 9 15 7 10 8 15 19 19 21 19 17 19 19 18 16 17 14 16 15 14 13 14 17 17 18 14 16 15 16 17 16 15 16 15 16 15 14 13 14 14 14 11 9 10 9 7 8 7 6 6 7 6 6 5 5 6 6 7 7 6 5 5 4 4 4 4 4 4 5 5 5 5 5 4 4 4 3 3 3 2 0 2 2 1 1 2
7 4 4 5 5 7 10 8 5 10 12 12 11 9 9 15 16 19 20 21 20 19 18 19 18 17 17 14 15 16 15 15 14 15 18 18 17 16 15 17 16 16 14 16 15 14 13 12 12 13 14 14 12 8 8 8 7 6 6 5 6 6 6 6 5 5 6 6 7 7 6 6 6 5 4 4 5 4 4 4 6 5 5 5 5 4 3 3 3 2 3 2 1 2 3 3 4
7 5 5 5 7 6 8 11 7 10 11 11 12 12 11 19 17 19 19 20 19 18 17 15 17 16 16 15 15 15 16 17 13 14 18 17 16 16 16 16 15 14 15 15 16 15 14 13 11 11 13 14 11 8 7 8 7 7 8 5 5 6 6 6 5 6 6 6 7 7 7 6 6 5 5 4 4 4 5 5 5 5 5 5 5 4 3 4 4 3 3 3 2 1 1 1 0
4 5 7 10 9 10 9 10 9 8 9 14 15 16 11 18 18 19 20 19 16 17 17 16 16 16 17 16 17 17 18 18 15 15 17 18 18 16 16 15 15 15 15 16 17 16 15 14 13 14 13 13 11 9 8 9 9 8 7 8 8 7 6 7 6 5 7 7 7 7 7 7 6 6 5 5 5 4 5 5 5 5 5 5 5 5 5 5 4 4 4 2 3 2 2 1 0
10 7 7 10 9 11 12 11 10 10 9 11 13 14 13 20 20 21 20 20 19 20 19 19 19 18 17 18 19 19 18 13 14 13 14 16 16 17 15 15 15 16 16 17 18 18 16 15 14 13 12 13 13 12 10 10 10 10 10 9 7 7 7 7 7 6 7 7 7 7 7 7 7 7 6 5 5 5 5 5 5 6 5 5 4 3 3 3 3 3 3 2 1 3 2 2 1
9 9 8 6 10 10 8 9 8 7 12 8 13 13 11 19 22 22 22 22 19 21 22 22 22 21 17 17 19 19 15 15 15 16 15 16 19 18 15 15 16 19 18 18 18 17 16 15 14 13 13 13 13 12 10 10 9 8 9 7 9 6 6 6 6 5 5 7 7 7 7 7 8 7 7 6 6 5 5 6 6 5 5 5 4 4 4 3 3 4 4 5 2 0 1 1 2
10 10 8 10 11 4 9 13 6 4 8 7 15 17 9 15 17 22 22 21 18 22 24 23 22 23 21 21 20 18 18 17 18 19 18 17 18 18 16 15 17 16 16 15 16 18 15 14 14 14 13 13 12 12 11 9 9 7 6 7 7 8 7 5 5 3 4 6 8 7 6 8 8 8 8 7 6 6 6 6 5 5 6 5 6 6 5 4 4 3 4 3 3 1 1 2 2
12 13 10 10 12 14 12 7 2 4 9 10 12 8 2 12 15 17 19 22 19 19 19 19 19 21 22 21 20 20 22 20 19 19 17 17 18 19 19 17 16 17 17 17 17 17 13 17 16 16 14 14 13 13 12 9 7 6 5 5 4 3 2 4 5 6 4 6 6 7 8 8 8 8 8 8 7 7 6 5 6 6 5 5 5 6 5 5 5 5 5 4 4 4 3 2 2
12 16 16 14 15 14 10 8 5 4 6 9 17 5 8 11 21 23 18 16 17 17 19 19 19 18 18 18 20 20 19 19 21 22 22 20 20 18 17 17 18 17 18 18 18 18 16 15 15 15 13 13 13 14 13 11 10 11 9 9 9 8 8 8 10 11 7 7 8 7 8 9 8 8 8 8 8 6 6 6 5 6 5 5 6 5 5 4 4 4 5 5 5 4 4 3 3
10 16 17 17 18 13 8 7 2 5 7 5 15 15 7 6 14 18 20 20 21 17 20 21 20 18 18 19 19 19 20 18 18 19 19 17 18 18 19 19 19 19 18 17 17 17 17 16 15 16 14 13 13 13 14 11 11 10 13 13 12 12 11 10 8 7 7 6 6 8 8 8 9 9 8 8 8 7 6 6 6 6 6 6 5 5 5 6 5 5 5 5 6 4 3 3 4
13 10 13 13 17 15 14 10 5 5 5 2 10 9 8 7 11 16 21 21 21 21 22 22 20 20 20 19 20 20 20 21 20 20 21 19 20 21 22 21 19 20 18 17 17 16 17 17 16 16 13 13 13 13 15 14 13 12 12 11 10 10 11 10 9 7 5 5 7 8 7 8 9 9 9 8 8 8 7 7 6 6 6 6 5 6 6 5 5 4 5 6 5 4 5 5 5
7 6 11 15 16 15 12 8 8 6 7 8 4 3 2 5 11 15 18 17 17 21 23 22 22 21 21 21 21 21 22 22 22 20 22 21 20 21 20 20 20 19 17 18 17 16 17 17 17 16 15 14 14 16 15 15 14 13 13 12 10 9 10 9 7 7 7 6 7 6 7 8 8 8 8 9 8 8 7 7 6 6 6 6 5 6 5 5 6 6 5 5 6 5 5 4 4
11 5 7 11 14 15 12 9 9 5 4 9 7 4 5 3 6 10 12 16 19 21 24 24 23 22 21 21 21 22 20 19 20 23 24 23 22 21 21 20 18 18 17 17 17 16 15 15 16 17 16 14 14 16 16 16 15 13 12 12 13 10 8 7 7 8 8 6 7 8 8 7 8 8 7 7 8 8 8 7 6 7 6 6 5 6 5 5 5 5 6 6 5 5 4 5 5
4 11 10 8 10 12 8 8 7 3 9 10 10 8 6 5 6 13 12 13 19 20 18 18 19 21 22 22 22 20 19 19 19 20 22 23 21 20 18 19 19 17 16 17 17 16 15 16 17 18 18 15 15 16 16 17 15 14 13 14 14 13 11 10 9 9 8 8 8 8 8 9 7 8 7 6 8 8 7 7 7 7 6 5 6 5 6 6 6 5 6 5 6 6 5 5 3
11 7 11 8 9 4 3 4 4 7 6 7 10 11 10 10 4 5 13 18 22 22 22 21 20 21 21 19 20 21 21 20 21 19 20 20 16 16 17 19 18 18 16 17 16 16 16 16 16 18 16 16 15 16 16 16 15 14 13 14 14 13 12 11 13 12 11 11 11 9 8 7 7 7 6 6 7 8 7 7 7 6 6 6 7 6 6 6 5 5 5 6 6 6 5 5 4
13 8 7 11 4 4 7 4 10 7 6 5 8 10 4 12 6 8 15 17 17 16 20 23 23 22 22 21 21 19 20 20 19 19 18 18 18 18 19 19 18 17 18 20 19 18 16 17 18 19 17 17 16 16 17 16 15 15 14 14 14 12 12 12 12 12 11 11 10 8 8 9 7 7 8 8 8 9 8 8 8 8 8 7 7 6 6 6 5 5 6 6 6 6 6 6 6
13 12 9 9 7 8 7 4 1 2 4 6 9 8 9 3 6 9 11 16 15 18 20 23 23 22 23 20 18 18 18 18 19 19 19 19 19 19 20 20 19 18 19 20 20 19 17 16 18 19 19 18 16 17 18 17 17 16 15 14 14 12 12 12 11 12 12 10 9 10 10 9 9 10 10 10 9 9 8 9 9 8 8 7 7 7 7 6 5 6 6 6 7 6 5 5 6
12 10 10 9 7 5 8 4 9 8 7 7 5 5 5 10 5 9 14 15 14 12 13 21 23 22 22 22 21 21 20 18 18 17 19 20 21 21 19 20 19 19 20 20 19 19 18 18 19 20 19 18 17 18 17 18 16 16 14 14 13 12 12 11 10 10 10 11 9 10 9 8 9 9 9 9 7 8 9 8 8 8 8 8 7 6 6 6 6 6 5 6 6 6 6 6 5
12 12 7 7 14 7 4 4 3 3 3 4 5 5 6 8 4 9 10 11 13 16 11 19 20 19 20 18 19 18 19 19 19 19 19 20 20 20 18 18 19 19 21 20 20 19 19 19 20 21 21 20 18 18 17 18 17 15 15 14 15 14 11 10 9 7 8 10 10 10 9 9 9 8 8 7 8 9 8 9 8 9 8 8 7 7 6 6 6 7 6 6 7 5 6 7 6
10 10 15 13 6 8 3 3 2 3 2 9 2 1 3 5 4 5 4 3 10 12 12 19 22 22 20 19 20 21 20 20 19 19 19 20 19 19 19 20 19 19 19 20 20 20 21 20 20 21 20 18 19 19 19 17 17 15 15 15 14 13 13 12 12 12 11 9 9 9 9 9 8 7 7 7 8 8 8 9 9 9 8 8 8 8 8 7 6 7 7 6 7 6 7 8 6
7 13 11 5 4 1 5 6 1 3 5 5 2 7 1 5 9 4 7 6 7 7 13 19 21 22 21 20 21 21 20 20 22 22 21 22 22 23 20 19 20 21 21 21 22 21 20 20 21 21 20 20 19 18 18 16 16 16 15 15 14 14 14 14 13 12 11 9 9 8 8 7 9 8 8 8 8 9 8 9 9 8 8 8 9 8 8 8 7 7 7 7 8 7 7 6 7
13 13 10 12 9 14 6 3 7 4 5 1 3 3 5 8 6 2 8 9 11 9 9 15 19 19 21 21 23 23 23 21 20 19 17 17 18 20 21 21 21 21 21 21 21 20 18 17 18 20 21 21 20 17 16 14 14 12 12 14 15 14 13 13 12 11 10 11 11 10 10 11 8 7 8 8 9 9 9 9 8 8 8 9 9 9 9 8 8 8 7 8 7 7 8 8 7
10 8 13 9 6 7 8 8 3 6 2 5 5 3 8 5 6 6 8 13 16 13 9 14 20 22 20 20 21 21 20 19 18 18 18 19 21 22 22 21 21 21 20 18 18 17 19 19 18 18 19 18 17 17 16 15 15 14 13 12 13 13 13 12 12 11 11 12 12 12 12 10 11 9 9 9 10 10 10 10 9 9 9 9 9 9 9 9 9 9 8 8 8 8 9 9 8
11 10 11 11 3 2 5 0 5 5 4 4 4 5 6 7 8 13 19 17 13 14 12 14 19 22 23 23 22 21 20 19 19 18 18 19 20 20 20 19 20 19 18 17 17 19 19 17 18 19 19 19 18 18 17 16 14 15 15 15 15 14 14 12 11 11 11 12 11 11 12 12 9 10 9 9 10 11 11 11 10 10 10 10 10 10 9 9 9 10 9 9 8 9 10 9 8
9 10 10 12 10 7 14 8 1 4 3 3 4 8 6 12 10 13 18 17 16 16 14 14 20 23 24 23 23 21 20 20 20 19 19 19 19 19 19 17 15 16 16 18 18 17 17 18 18 18 18 17 18 18 16 15 14 14 16 16 16 14 13 12 12 12 12 11 11 11 11 9 11 11 10 11 11 10 10 11 11 11 11 11 11 11 10 9 10 10 10 8 9 10 10 10 8
Wind_Direction
155 155 149 148 106 149 164 185 172 166 168 234 315 145 105 59 242 159 203 174 179 184 214 107 139 144 189 183 104 102 27 144 302 158 198 141 133 139 140 129 133 131 132 134 144 146 143 146 152 140 135 130 126 126 127 127 124 123 121 120 121 120 119 117 117 117 118 120 119 119 118 117 119 116 115 115 120 122 124 126 128 133 133 130 132 131 127 121 119 114 111 110 109 108 108 109 113
153 153 151 132 161 163 207 162 248 213 243 274 221 109 222 186 263 183 195 199 207 170 163 127 159 45 91 113 143 112 29 11 335 116 65 121 123 133 138 137 139 135 135 134 134 134 144 151 164 139 136 131 128 130 131 129 126 125 123 122 121 120 119 118 119 120 119 120 118 119 119 120 122 123 122 124 128 128 130 132 131 134 135 137 135 130 128 127 123 118 114 114 113 111 112 114 119
152 157 137 151 173 237 82 248 306 307 301 315 180 160 140 113 225 202 189 209 155 134 146 121 82 12 160 224 84 58 193 27 97 96 103 134 125 152 143 138 135 135 134 132 138 141 147 161 154 141 137 133 133 134 133 130 128 125 125 124 123 122 119 120 120 120 119 119 119 119 122 124 119 118 118 123 127 128 130 137 136 135 136 136 133 133 129 125 121 112 113 115 115 114 115 114 119
148 157 149 163 113 196 258 200 343 314 314 285 332 154 263 197 197 176 163 108 128 145 149 122 147 178 156 73 109 90 93 91 120 130 131 154 146 142 141 136 135 132 129 134 141 145 142 152 152 144 138 136 136 136 133 131 129 127 127 126 124 122 122 122 121 121 120 120 119 120 123 118 119 121 125 134 137 138 141 146 140 136 133 130 133 132 126 127 128 126 127 127 116 116 117 120 119
141 188 159 203 166 156 169 289 258 175 260 93 207 136 171 249 169 157 123 243 162 170 177 170 129 32 107 119 150 136 146 107 135 44 124 122 131 137 137 135 134 134 136 139 143 142 150 155 154 144 138 138 138 137 135 133 130 131 130 126 125 125 125 125 124 123 123 122 123 122 121 123 126 128 133 134 129 137 147 139 135 130 131 131 128 129 132 129 126 127 124 122 121 119 118 120 121
122 119 352 155 322 200 74 6 284 250 231 138 193 170 173 214 188 140 158 123 81 301 136 144 122 137 78 12 39 95 135 145 141 114 129 140 139 137 135 136 135 134 139 141 145 148 157 162 155 142 140 139 140 138 136 135 134 134 131 129 128 129 129 128 126 125 125 125 124 124 126 128 128 132 134 138 141 141 135 138 132 127 126 125 126 127 127 125 126 122 121 121 122 122 120 119 118
144 100 198 53 327 257 154 213 277 268 264 174 219 158 199 181 179 157 153 97 355 359 325 104 106 104 78 101 76 94 69 112 132 137 138 137 135 135 136 137 134 136 140 142 146 149 156 157 151 141 141 141 141 139 138 137 136 135 133 132 131 130 130 129 127 126 126 125 125 124 125 125 125 126 126 127 129 129 127 124 126 124 122 121 122 126 125 123 120 114 121 125 124 124 120 119 118
54 104 175 138 157 121 227 224 241 219 262 160 275 319 144 157 151 182 165 152 169 159 118 132 116 93 78 46 103 116 114 67 115 123 128 134 134 136 138 138 135 140 142 140 146 153 154 159 144 143 142 143 141 141 141 140 139 137 136 135 134 132 130 129 128 127 127 126 125 124 124 125 125 126 125 126 125 126 125 123 121 120 121 125 126 125 126 124 127 125 130 118 124 122 119 119 119
87 124 339 172 98 214 263 244 225 220 308 177 214 211 145 128 133 227 166 159 129 150 137 121 156 90 125 99 83 113 94 113 121 127 133 134 136 140 140 140 140 145 142 144 147 151 154 150 145 143 144 145 144 144 144 143 140 140 139 137 135 133 131 129 129 129 127 126 124 124 124 122 122 121 122 120 122 120 121 122 121 120 119 119 120 119 117 118 117 121 121 126 122 117 117 118 120
127 249 177 164 130 286 258 290 175 223 244 206 178 192 170 170 162 315 177 151 172 156 127 128 91 105 115 97 108 108 123 125 129 128 134 137 138 138 140 141 142 142 141 144 147 151 153 149 146 146 146 147 146 146 146 143 142 142 140 138 138 134 131 130 130 129 127 125 124 123 123 123 121 119 118 121 119 118 119 119 120 121 122 121 120 120 118 116 115 113 114 105 114 115 117 121 121
120 225 266 124 156 91 243 271 259 312 265 165 214 215 177 167 161 166 175 170 151 134 113 107 98 113 112 91 73 113 126 133 137 139 141 142 139 139 139 140 139 141 143 145 148 150 150 150 149 149 149 148 149 148 146 145 145 143 141 141 138 135 133 132 132 131 129 126 124 125 124 123 120 118 117 116 117 118 118 119 119 119 120 120 117 115 115 113 112 113 112 122 116 117 119 119 119
92 205 127 108 200 166 238 290 278 254 261 205 219 175 173 155 146 159 182 168 139 128 135 144 136 124 96 115 122 136 134 140 140 140 144 142 140 140 139 138 139 140 141 142 147 149 150 150 148 151 150 151 151 150 148 148 147 145 144 142 140 138 137 136 135 132 130 128 127 125 124 123 123 122 121 120 120 119 119 118 118 118 119 119 118 117 115 115 115 116 117 117 117 119 118 117 114
193 137 107 81 229 138 241 263 271 217 220 238 195 190 156 154 190 180 172 157 133 135 159 176 133 128 119 123 127 138 140 144 142 144 143 141 139 140 138 137 137 138 142 143 146 149 151 149 149 151 152 152 152 152 151 149 149 148 147 145 143 142 142 140 138 134 132 130 128 127 127 127 126 126 126 126 124 122 123 122 123 121 119 119 119 118 118 117 116 117 115 118 121 117 115 113 112
183 184 130 259 270 214 192 246 182 203 257 25 207 186 175 191 249 225 179 149 149 153 136 134 130 115 106 115 140 150 146 148 145 144 141 137 139 140 138 136 137 139 142 145 147 149 151 150 150 151 152 150 152 154 154 153 151 151 150 148 148 147 146 145 142 137 134 133 132 132 132 131 129 129 128 127 126 125 125 125 124 124 123 122 123 122 121 119 117 115 114 114 114 118 116 113 109
213 193 110 210 257 140 243 156 216 184 248 91 52 38 329 281 352 301 256 145 158 123 124 132 135 113 176 159 154 162 154 151 149 146 140 140 140 137 132 135 137 140 143 146 146 150 153 151 152 150 147 150 150 150 156 156 155 155 154 153 152 151 150 150 146 141 138 136 136 135 134 131 130 129 128 127 128 127 126 126 127 127 126 124 122 122 120 119 119 116 116 117 116 116 116 117 114
193 155 156 270 250 167 271 118 94 98 276 96 130 155 178 298 194 238 223 172 125 133 156 139 193 9 157 173 147 148 150 149 148 144 141 144 141 131 135 138 140 143 146 147 150 153 154 154 151 149 149 150 150 152 155 157 159 158 157 156 156 155 156 154 150 145 143 141 141 140 138 135 133 133 133 131 131 133 133 136 133 128 126 123 121 120 122 123 122 119 117 117 117 115 115 119 119
186 178 276 228 277 154 239 164 102 31 252 187 139 127 164 195 233 209 242 131 140 152 175 146 168 129 155 140 144 142 147 150 146 143 143 139 142 143 144 148 147 152 150 154 155 157 159 155 153 149 153 151 151 154 157 157 163 161 160 159 159 161 161 158 151 149 146 145 142 143 135 117 121 127 127 136 131 130 146 145 139 133 127 124 123 122 124 124 122 124 122 119 120 119 119 123 125
176 203 183 245 236 230 208 182 156 176 146 210 179 169 175 190 181 201 153 151 142 155 130 154 113 119 127 130 138 144 146 147 147 146 146 145 150 152 148 152 153 159 156 158 163 162 159 159 157 155 154 154 155 156 158 162 164 161 160 162 161 165 164 160 153 150 149 148 150 140 134 148 140 129 161 138 128 152 152 149 142 133 128 126 123 122 124 126 127 126 126 127 127 126 122 95 117
184 193 168 243 204 225 163 137 140 150 190 200 209 189 187 196 163 168 151 155 155 137 138 132 122 115 123 137 144 147 150 152 151 150 150 149 154 154 154 153 159 156 159 162 166 169 164 159 160 160 158 156 157 159 161 165 163 154 163 160 165 166 169 154 152 147 140 160 142 144 156 161 161 166 170 146 154 156 164 151 145 137 133 129 127 124 123 128 130 131 128 132 134 131 112 120 118
203 157 216 240 226 247 166 160 184 184 152 150 179 201 176 200 151 167 152 158 162 152 146 140 135 134 141 145 148 148 153 154 152 151 152 154 155 156 154 158 160 163 162 166 166 166 165 166 165 163 161 159 160 163 163 164 156 161 167 164 165 167 160 151 156 147 166 168 164 162 162 170 178 178 191 165 160 155 176 157 149 144 141 137 138 131 135 137 144 143 140 128 125 112 145 157 130
170 198 218 235 216 242 253 178 210 202 166 151 168 176 196 205 153 172 152 150 177 158 163 154 149 146 145 149 152 154 154 155 151 155 155 157 158 158 158 161 163 162 163 161 164 169 170 168 164 165 163 164 162 165 168 167 163 164 170 170 166 168 158 161 169 166 180 182 180 178 172 171 170 184 218 147 138 155 159 163 127 117 113 139 128 89 109 149 104 94 75 118 141 165 157 185 151
140 214 224 235 101 213 243 198 191 196 153 134 179 168 198 191 170 178 163 167 181 175 167 151 148 148 148 152 155 155 158 159 157 159 164 164 162 160 158 156 157 159 161 167 172 167 172 171 167 166 165 168 171 171 170 170 164 173 176 176 169 174 166 175 184 182 187 189 186 187 171 159 166 187 180 134 150 151 167 179 169 155 154 175 137 148 169 168 174 208 207 209 173 177 207 191 182
233 236 233 232 230 238 237 197 183 181 162 140 158 200 153 188 182 176 180 185 168 157 155 148 153 154 153 150 153 158 162 164 164 164 164 164 163 162 163 161 163 167 170 170 166 171 172 171 169 168 168 170 175 171 169 170 177 180 175 175 167 182 176 180 197 191 194 190 191 180 165 170 175 187 182 156 154 161 177 190 187 183 183 185 179 146 174 217 157 200 207 209 225 195 195 221 204
233 248 228 240 229 229 230 198 161 186 167 180 184 146 176 174 176 174 175 175 153 143 143 147 150 146 150 154 160 161 165 166 167 166 165 166 164 164 164 163 164 163 168 167 167 170 174 175 170 171 172 172 174 174 172 177 176 177 181 179 179 181 176 194 200 198 193 193 186 186 172 175 176 183 189 170 167 169 185 183 183 182 177 187 186 156 170 216 197 188 219 340 305 278 177 164 195
225 242 239 240 228 232 225 189 174 186 210 144 149 161 202 192 172 161 167 142 131 133 138 144 149 152 157 158 161 161 161 163 165 165 161 164 165 161 161 161 165 166 171 170 166 171 178 174 172 174 173 176 174 172 177 178 175 179 180 183 181 187 185 196 200 194 192 196 188 181 176 179 180 178 187 187 154 177 175 167 174 172 158 174 171 186 172 198 234 237 220 191 253 270 300 181 152
231 238 237 241 227 216 209 183 183 176 190 136 159 175 193 206 127 170 149 139 135 136 139 147 153 157 161 163 160 161 163 166 167 168 166 164 167 162 165 168 168 174 176 167 168 173 174 175 176 178 177 176 175 173 177 177 177 179 188 188 185 189 195 198 192 191 198 187 192 185 188 183 184 181 186 178 160 175 166 172 171 170 165 178 178 187 200 176 201 240 262 187 239 293 322 302 34
212 236 244 238 226 209 201 192 188 168 166 182 182 170 176 167 149 208 154 141 139 141 146 151 157 163 164 165 161 161 165 168 169 166 162 166 170 168 167 168 173 175 171 171 171 172 175 174 179 179 177 176 173 178 177 181 177 184 188 191 186 195 197 193 191 193 189 193 191 187 195 189 186 177 174 176 171 165 167 175 180 168 176 192 192 199 189 180 176 175 166 182 224 225 255 299 10
252 257 257 242 230 215 204 201 188 170 201 187 163 167 170 186 147 170 152 147 147 147 152 157 162 165 165 168 162 162 166 167 166 168 168 169 172 170 170 171 173 174 176 174 173 170 173 177 178 176 178 176 177 180 178 180 183 187 190 190 193 201 191 190 192 188 192 197 190 186 195 199 177 183 172 176 166 166 175 177 178 173 192 196 192 195 201 165 146 146 174 182 200 247 322 339 331
249 246 261 270 245 223 215 203 200 181 192 167 142 126 204 176 187 161 146 148 150 151 156 162 163 164 168 172 161 166 168 169 171 175 174 173 166 169 173 172 171 175 178 174 171 172 174 175 177 177 177 178 179 181 181 183 183 187 192 192 197 197 196 186 186 189 191 192 187 181 191 197 170 171 176 174 169 175 173 172 178 193 191 193 195 192 180 143 131 125 140 135 78 3 5 326 328
241 241 246 265 262 242 213 215 202 188 200 154 162 184 198 198 174 165 150 151 151 153 162 165 163 162 169 175 171 169 168 172 178 180 177 175 172 170 171 172 173 174 172 173 171 176 173 175 176 175 178 181 182 182 181 182 186 188 195 195 194 191 190 185 187 184 184 184 180 178 182 177 157 165 164 170 164 170 169 173 185 193 193 194 194 175 173 164 136 134 173 140 233 186 354 314 354
228 242 219 227 243 250 211 198 193 197 178 151 177 192 202 186 188 166 159 156 156 162 167 169 168 166 171 178 179 176 177 177 177 178 178 177 175 173 172 170 173 172 171 173 177 177 173 175 175 177 179 182 181 182 184 185 184 187 192 195 194 189 183 182 184 179 176 179 169 177 185 166 141 159 162 160 170 167 163 172 185 197 180 177 190 190 165 180 154 158 165 181 341 345 299 290 14
259 244 239 245 201 267 230 188 184 198 176 178 163 198 166 203 203 169 164 163 161 164 168 170 170 170 174 179 185 184 181 182 178 177 178 177 177 175 174 172 173 173 175 175 173 176 177 176 175 178 178 181 186 181 185 186 182 185 188 190 189 187 181 184 171 176 174 171 169 173 185 169 154 156 161 166 161 165 162 166 187 186 174 168 181 176 158 182 173 158 180 152 118 305 321 316 59
233 214 262 238 199 232 254 203 187 194 169 186 168 171 137 203 203 176 165 164 166 167 170 171 172 171 173 181 187 188 184 180 183 178 178 176 178 174 176 172 173 176 175 174 173 177 180 176 177 177 179 182 184 180 186 185 177 181 183 185 183 182 180 188 163 171 161 166 167 167 176 173 165 169 161 165 156 159 156 159 174 173 168 167 167 165 175 182 170 156 143 156 144 189 303 301 327
255 176 212 239 222 203 230 256 212 195 155 196 182 159 173 171 184 168 167 168 168 172 173 174 175 172 177 176 184 189 192 185 184 181 178 177 177 174 174 175 173 173 177 176 175 178 181 177 178 177 179 182 182 178 185 183 179 174 177 178 174 180 188 189 157 168 164 165 164 166 172 171 175 177 167 160 156 164 161 160 165 167 160 156 157 161 178 164 171 156 158 293 168 149 273 295 286
218 207 233 264 249 213 212 207 201 195 180 185 191 185 163 165 168 167 170 172 169 174 177 177 175 176 178 176 180 189 194 193 188 182 178 178 176 172 173 177 176 173 176 177 176 177 179 179 177 175 175 181 183 176 179 177 168 170 171 169 168 179 192 195 154 168 172 164 171 171 171 172 176 177 178 160 160 159 165 165 161 169 156 158 150 153 149 157 162 141 154 186 216 198 188 212 218
215 205 216 239 235 225 220 222 219 184 187 196 185 199 174 172 167 169 173 172 172 176 177 178 179 177 178 179 182 187 194 199 193 183 180 178 179 173 173 176 178 175 175 175 177 177 179 180 180 174 177 179 177 175 169 171 165 169 174 172 170 185 188 195 173 172 175 181 176 172 177 173 172 177 182 174 156 159 167 173 165 164 162 155 148 154 166 174 176 161 169 157 174 259 268 223 159
249 215 223 241 243 250 234 224 220 193 180 200 196 200 168 172 170 172 176 172 175 175 176 181 182 180 181 182 186 187 192 198 191 185 179 180 180 176 175 175 177 175 175 174 177 179 180 180 178 179 177 176 177 177 179 174 172 173 173 183 186 187 184 190 189 177 181 188 181 176 176 176 174 174 182 178 165 172 172 173 166 172 165 164 157 171 175 182 178 170 169 159 162 175 259 308 98
243 248 232 239 243 247 236 234 216 196 194 206 202 188 188 173 174 174 173 173 180 181 180 186 180 184 183 183 185 189 193 192 186 185 183 179 180 179 175 176 176 176 180 177 179 181 181 180 182 178 174 178 181 183 182 182 181 181 176 184 179 184 186 188 200 183 187 184 185 178 177 176 175 177 179 186 174 173 170 176 178 177 170 168 165 161 168 181 145 148 145 130 205 162 212 224 198
243 239 241 259 250 253 289 265 247 198 195 207 192 192 185 171 176 174 173 179 184 183 182 187 181 181 184 185 186 188 187 188 188 190 186 182 181 179 177 177 179 181 180 180 179 178 178 181 181 177 179 179 182 181 181 188 186 181 177 177 177 181 199 192 196 179 178 177 185 184 178 176 175 181 181 183 183 178 177 176 185 175 176 164 148 159 170 173 159 168 168 166 183 313 221 228 171
234 240 237 232 247 238 254 253 254 210 209 190 191 193 181 165 170 174 177 183 188 187 186 186 182 180 182 185 184 184 188 187 190 190 190 186 182 182 180 178 180 178 178 180 180 180 179 181 180 179 181 179 180 183 184 187 184 177 169 166 172 175 186 189 194 192 162 174 181 184 185 177 180 182 183 185 189 181 175 182 180 177 181 174 164 168 183 178 167 175 171 177 142 152 262 274 177
231 235 234 238 246 235 230 254 351 294 255 186 178 170 142 160 171 182 188 187 186 187 187 187 187 185 183 184 184 184 185 187 188 190 191 189 186 185 185 180 175 179 179 180 181 182 183 182 180 180 179 180 180 181 179 172 166 149 140 126 133 127 132 179 184 220 185 182 177 180 189 183 183 184 186 187 185 189 177 181 179 185 178 180 166 175 181 192 185 188 181 170 180 168 206 246 256
226 236 230 231 240 249 249 261 276 288 302 203 160 156 208 192 179 182 184 186 190 187 186 190 191 190 185 182 185 189 191 186 186 189 191 190 189 183 184 180 179 182 182 183 182 183 180 180 177 178 178 179 179 179 174 169 174 168 159 156 165 178 187 190 199 202 192 186 190 182 180 184 184 187 188 187 187 188 185 181 181 178 184 179 180 183 181 181 193 190 198 183 194 194 171 180 240
209 227 226 228 242 248 261 275 282 257 240 279 177 169 213 211 190 184 182 184 187 185 191 192 191 190 187 187 186 186 187 189 192 191 191 189 189 185 184 184 181 183 185 182 182 181 180 177 177 177 177 180 178 177 174 174 174 178 180 180 179 181 185 202 204 202 191 185 172 182 184 185 186 187 190 188 187 187 190 183 183 184 187 186 182 173 181 192 195 197 193 184 200 191 149 187 204
223 212 227 233 243 244 248 255 246 246 280 261 201 184 163 190 215 188 181 184 183 186 192 194 193 189 188 189 187 187 187 185 185 189 191 192 188 186 185 185 183 185 180 179 182 181 178 177 176 178 178 178 180 176 177 179 180 182 185 186 187 189 192 196 198 201 183 167 180 185 181 188 189 191 187 189 186 185 187 192 186 185 188 189 180 185 193 195 190 200 188 191 194 186 181 187 207
217 171 206 232 245 241 246 246 249 243 278 290 265 242 175 205 204 197 177 182 182 188 194 198 195 191 188 187 188 188 188 186 184 185 189 191 190 189 185 185 185 180 177 179 182 182 181 178 176 176 177 178 179 179 179 183 184 185 185 186 189 195 193 194 193 194 192 175 181 185 186 189 190 195 192 187 187 185 187 193 189 187 190 190 186 191 198 187 189 189 194 191 191 197 187 191 164
215 210 200 217 238 250 232 239 238 232 208 255 250 199 227 261 216 195 191 179 186 191 195 197 193 191 190 188 188 188 187 187 188 186 187 190 190 189 185 182 179 181 179 178 179 179 180 178 176 176 179 180 180 182 182 184 184 184 187 190 192 188 188 186 184 193 200 182 184 189 188 188 191 194 196 191 186 188 190 190 191 192 195 191 188 193 193 198 198 193 194 195 196 191 199 184 187
177 206 239 237 228 236 234 217 216 180 220 237 234 228 207 247 226 182 178 197 187 195 198 198 192 191 191 189 186 186 185 186 189 190 189 190 188 187 181 180 182 178 177 176 177 179 179 179 180 180 182 180 180 184 184 185 184 185 191 192 192 190 185 180 183 195 195 196 190 191 190 194 190 194 189 193 190 188 190 190 193 198 196 196 194 191 196 201 202 197 200 195 194 187 183 195 196
198 189 211 238 267 297 258 228 161 208 234 242 212 227 201 232 278 232 201 197 194 185 190 193 190 192 194 192 189 186 185 186 187 187 190 188 181 182 181 185 181 177 174 176 177 176 176 180 182 184 183 181 182 185 187 187 186 189 191 191 194 193 184 184 188 191 192 196 197 189 191 183 194 193 193 189 194 192 189 193 194 192 195 195 200 196 200 201 198 192 194 192 196 195 176 180 176
202 199 193 200 230 216 242 169 216 205 193 240 209 201 219 228 215 205 203 206 207 189 188 192 191 189 192 193 189 187 188 187 183 185 185 184 183 181 183 184 179 176 177 179 179 178 177 179 181 182 186 184 184 184 188 189 190 191 191 192 195 193 191 189 190 191 192 194 194 187 177 192 187 189 199 197 197 191 189 191 193 195 198 197 195 193 203 199 192 186 191 193 189 191 188 180 180
197 202 193 186 201 210 232 243 216 208 241 229 198 193 229 223 253 216 213 216 201 193 192 193 192 186 189 190 188 188 189 186 185 185 184 185 185 184 183 181 181 179 179 180 179 179 178 180 182 183 187 185 183 185 188 190 194 193 192 193 194 192 194 192 192 192 192 193 188 191 188 189 189 197 194 202 196 190 192 196 195 198 196 193 191 193 197 200 188 189 187 189 192 198 188 188 192
200 197 185 202 192 188 212 190 208 206 200 239 191 160 222 176 245 206 206 211 213 206 183 192 193 187 185 187 188 188 187 187 186 185 186 187 187 184 182 183 183 181 179 180 180 182 180 182 182 185 185 187 184 186 187 191 194 195 194 194 194 194 195 195 196 193 190 190 191 192 193 189 194 198 198 200 188 190 195 193 196 196 194 194 192 191 196 196 193 192 190 193 192 191 195 193 201
201 197 180 188 220 122 174 209 143 194 166 243 202 201 184 184 231 200 196 206 211 213 177 178 192 189 186 184 187 189 188 187 187 188 189 189 186 183 183 184 185 184 180 180 181 181 183 185 185 187 186 185 186 186 189 192 194 194 195 194 196 196 197 197 197 193 194 193 190 190 193 193 197 195 199 185 193 192 192 194 195 199 194 192 193 193 190 192 192 192 194 191 198 192 193 200 206
188 184 206 210 131 177 230 312 257 118 106 240 199 234 279 306 339 259 256 204 222 217 182 174 185 190 182 185 188 192 190 187 187 188 188 188 186 186 186 185 185 184 183 183 183 183 185 185 186 189 189 186 188 189 190 192 192 192 196 197 196 197 197 196 197 196 194 193 192 194 191 195 191 190 191 191 192 194 193 191 194 198 194 193 193 194 193 193 187 191 192 194 199 194 192 201 204
151 202 206 119 156 142 173 211 299 198 177 252 272 218 287 174 247 266 222 228 233 207 193 178 185 184 183 187 190 189 188 188 190 189 188 186 185 185 187 187 186 185 185 185 185 185 185 184 185 186 187 189 191 190 192 192 191 193 195 196 197 197 198 200 199 197 195 190 196 197 193 186 193 189 188 190 189 193 193 193 194 196 196 193 197 196 196 197 190 193 195 198 200 188 195 200 203
192 202 139 174 161 209 197 146 221 177 214 249 294 218 235 189 237 241 223 226 241 215 200 181 183 181 183 189 191 191 189 188 189 187 186 187 187 188 188 187 187 187 187 187 186 183 183 185 186 186 188 191 190 191 192 191 190 193 195 197 197 198 201 202 201 197 192 195 197 196 197 199 191 183 184 185 188 193 193 195 195 198 195 198 199 199 198 198 195 197 193 198 198 191 194 200 203
198 134 178 174 145 198 169 197 150 135 230 188 286 194 234 210 203 197 225 220 220 230 172 181 182 181 185 187 190 190 188 187 187 187 186 186 189 189 189 187 185 187 188 186 182 182 184 185 184 188 190 189 188 190 189 191 193 193 194 195 199 202 202 203 201 195 195 198 198 196 199 197 197 187 188 185 189 192 194 194 196 197 198 199 200 203 198 200 198 202 195 195 197 194 198 202 203
187 175 185 186 199 166 135 235 176 165 171 192 176 235 269 254 215 210 225 224 222 219 201 178 180 184 185 188 189 187 184 185 186 187 186 187 188 189 190 189 188 186 184 180 180 184 185 183 186 187 187 188 190 191 190 194 190 194 193 194 197 198 201 201 203 204 205 203 199 198 199 200 190 194 187 187 190 194 195 197 196 198 199 199 201 203 202 200 200 204 201 199 193 195 201 207 200
198 181 192 188 158 139 188 238 133 175 114 197 171 237 258 243 218 218 223 222 219 222 215 171 182 182 186 192 187 180 181 185 185 185 185 186 187 187 188 189 186 181 181 182 183 185 183 185 187 186 187 188 189 190 192 192 193 195 196 197 197 198 199 197 200 204 209 209 206 201 199 192 194 198 190 195 196 195 196 196 198 201 202 201 202 204 203 200 204 206 206 200 198 196 203 206 200